Погода Казанская

Погода Казанская : погода сейчас, прогноз погоды и архив. Всё, что Вы хотите узнать о погоде Казанская!

Хотите узнать прогноз погоды Казанская? Тогда Вам сюда: Погода Казанская

Поиск расширенной информации на нашем сайте:

Другие новости

Новости СМИ2

Главная страница сайта

Новости сайта

02.10.2013

Напоминаем, что на нашем новом сайте вы можете получить высокодетализированные прогнозы погоды по пунктам России, СНГ и мира (включающие важные для авиации метеовеличины, такие как направление и скорость ветра, видимость, явления погоды, количество и форма облачности, нижняя и верхняя граница облачности), а также ознакомиться с разнообразными материалами по авиационной метеорологии и подборкой полезных ссылок на эту тему.

Сайт Метеоцентр.Азия посвящён разработке технологий оптимизации авиаметеорологического обслуживания, включая проектирование и перспективное создание нескольких автоматизированных авиаметеорологических систем:
- система выпуска высокодетальных прогностических карт явлений погоды для нижнего воздушного пространства по России и ближнему зарубежью;
- система верификации прогнозов TAF (выпускаемых синоптиками официальных АМСГ РФ и ближнего зарубежья) и AUTOTAF (выпускаемых сайтом Метеоцентр.Азия) - выявление ошибок, онлайн-сопоставление с фактической погодой METAR, автоматическое внесение коррективов в прогнозы при резком отклонении фактической погоды от прогноза, подсчёт оправдываемости прогнозов по элементам и в целом;
- система обработки, анализа и отображения авиаметеорологической информации для применения провайдерами метеорологической информации.

Рекомендуем: Новости мобильных технологий на http://wildplain.ru

Погода Казанская - сегодня

Время (UTC), дата Ветер
(°,м/с) 
Видим.   Явления Облачность Т
(°С)
Тd
(°С)
f(%) Тe
(°С)
Pmin
(гПа)
dP
(гПа)
Po
(мм)
O2
(г/м3)
Тmin Tmax R s Состояние
почвы
09 25.06.17 240 (ЮЗ) 20000 м    8/4 600 м средняя 
[Cu med, cong|Ac trans]
+23.7 +10.8 44 +26  1011.7  0.3  753  277           
12 25.06.17 260 (З) 20000 м    9/5 600 м кучево-дожд., средняя 
[Cb cap|Ac trans]
+23.9 +10.6 43 +26  1011.7  753  277           
15 25.06.17 170 (Ю) 20000 м    8/0 средняя 
[Ac trans]
+21.5 +13.1 59 +27  1012  0.2  753  279    +24.7       
18 25.06.17 тихо ()   20000 м    9/4 600 м кучево-дожд., средняя 
[Cb cap|Ac trans]
+19.6 +15.5 77 +29  1012.9  0.9  753  280           
21 25.06.17 270 (З) 20000 м    ясно 
+18.8 +15.2 80 +29  1013.2  0.3  754  281           
00 26.06.17 060 (СВ) 20000 м    ясно 
+14.9 +13.9 94 +23  1013.7  0.4  754  285           
03 26.06.17 тихо ()   20000 м    3/0 верхняя 
[Ci fib]
+16.4 +15.3 93 +25  1014.5  0.8  755  284  +13.9        сухая 
06 26.06.17 230 (ЮЗ) 20000 м    10/0 средняя, верхняя 
[Ac trans|Cs]
+23.9 +14 54 +31  1014.5  0.1  755  277           
09 26.06.17 260 (З) 20000 м    3/3 600 м 
[Cu hum]
+27.2 +14.4 45 +35  1014.1  -0.3  755  274           
12 26.06.17 250 (З) 20000 м    9/3 600 м средняя 
[Cu med, cong|Ac trans]
+28 +13.4 41 +34  1013.5  -0.6  754  273           
15 26.06.17 220 (ЮЗ) 20000 м    6/0 средняя 
[Ac trans]
+28.9 +13.8 40 +35  1012.3  -1.1  753  272    +29.4       
18 26.06.17 180 (Ю) 20000 м    ясно 
+23.7 +14.9 58 +32  1011.9  -0.5  753  276           
21 26.06.17 200 (Ю) 20000 м    ясно 
+22.3 +13.8 59 +29  1012  0.1  753  278           
00 27.06.17 220 (ЮЗ) 20000 м    ясно 
+21.7 +14.1 62 +29  1011.8  -0.3  753  278           
03 27.06.17 120 (ЮВ) 20000 м    3/0 средняя 
[Ac trans]
+21.7 +14.5 64 +29  1012.1  0.4  753  278  +21.3        сухая 
06 27.06.17 210 (ЮЗ) 20000 м    10/0 верхняя 
[Cs]
+26.6 +14.9 49 +35  1011.5  -0.5  753  273           
09 27.06.17 210 (ЮЗ) 20000 м    8/3 1000 м средняя, верхняя 
[Cu med, cong|Ac cast|Cc]
+30.1 +14.2 38 +37  1011.2  -0.2  752  270           
12 27.06.17 230 (ЮЗ) 20000 м    8/3 1000 м средняя, верхняя 
[Cu med, cong|Ac cuf|Cc]
+31 +13.1 34 +37  1010.3  -0.8  752  270           
15 27.06.17 220 (ЮЗ) 20000 м    4/3 1000 м верхняя 
[Cu hum|Ci fib]
+30.6 +13.8 36 +37  1009.7  -0.6  751  270    +31.9       
18 27.06.17 тихо ()   20000 м    10/0 средняя, верхняя 
[Ac lent|Cs]
+23 +18.7 77 +39  1010.8  0.9  752  275           
21 27.06.17 тихо ()   20000 м    ясно 
+19.9 +18.1 89 +34  1010.7  -0.2  752  278           
00 28.06.17 290 (З) н/о    н/о 
+19.1 +17.6 91 +33  1011.8  1.1  753  279           
03 28.06.17 тихо ()   20000 м    10/0 средняя, верхняя 
[Ac trans|Cs]
+20.5 +18 86 +35  1011.7  -0.1  753  278  +18.6        сухая 
06 28.06.17 060 (СВ) 20000 м    ясно 
+26.6 +16.7 55 +38  1011.9  0.4  753  273           
09 28.06.17 280 (З) 20000 м    1/1 1000 м 
[Cu hum]
+29.9 +17.3 47 +43  1011.6  -0.2  753  270           
Время (UTC), дата Ветер
(°,м/с) 
Видим.   Явления Облачность Т
(°С)
Тd
(°С)
f(%) Тe
(°С)
Pmin
(гПа)
dP
(гПа)
Po
(мм)
O2
(г/м3)
Тmin Tmax R s Состояние
почвы

Для получения пояснительной информации подведите курсор к названию столбца.

ПОГОДА Казанская - архив

Всё, что Вы хотите узнать о погоде Казанская - удобно и подробно!

Выберите нужную дату (начиная с 1 января 2015* года) и нажмите кнопку "Найти".
Будут отображены архивные сводки погоды по пункту Казанская, начиная с указанной даты.


Отображать данные в формате CSV (для использования в таблицах Excel)


Внимание! Наш архив погоды предназначен исключительно для личного некоммерческого использования в познавательных целях. Если Вам необходимы официальные справки о состоянии погоды (для производственных, юридических, коммерческих и т.п. целей), обращайтесь в органы Росгидромета.

*Примечание: данная дата относится к архиву по метеостанциям СССР (Россия, СНГ, Балтия).
Архив по метеостанциям Зарубежной Европы и Азии (кроме Китая) хранится 10 дней, по другим регионам земного шара (Китай, Африка, Америка, Австралия, Океания) - 1 день.

Казанская - район местоположения метеостанции


Название, широта, долгота, высота метеостанции:
Казанская 49.8°ш. 41.2°д. 72 м над ур. моря [Российская Федерация]

Дополнительная информация

В oтличие oт бoльшинства пoгoдных сайтoв мы публикуем пoдрoбную метеoинфoрмацию в детальнoм прoфессиoнальнoм фoрмате.

Характеристики температуры и влажнoсти вoздуха измеряются на высoте 2 м в тени вдали oт зданий и деревьев.
Скoрoсть ветра измеряется на высoте 10 м (на урoвне рoста челoвека скoрoсть ветра ниже в 1.5-2 раза). Если метеoстанция нахoдится в гoрoде или в лесу, тo скoрoсть ветра занижена на 2-4 м/с пo сравнению с oткрытым местoм. Скoрoсть ветра над акватoриями крупных рек и oзёр, а также на вершинах хoлмoв на 2-5 м/с выше, чем в oбычных услoвиях.
Атмoсфернoе давление в разных тoчках местнoсти мoжет значительнo oтличаться oт давления на метеoстанции, в зависимoсти oт услoвий рельефа (при пoдъёме на 10 м давление пoнижается примернo на 1 мм рт.ст.).